Time,TemperatureF,DewpointF,PressureIn,WindDirection,WindDirectionDegrees,WindSpeedMPH,WindSpeedGustMPH,Humidity,HourlyPrecipIn,Conditions,Clouds,dailyrainin,SoftwareType,DateUTC
2013-01-17 00:01:00,32.7,32.7,29.38,WNW,298,4.0,24.6,100,0.00,,,0.00,VWS V13.01,2013-01-17 05:01:00,
2013-01-17 00:02:00,32.7,32.7,29.38,WNW,301,7.4,24.6,100,0.00,,,0.00,VWS V13.01,2013-01-17 05:02:00,
2013-01-17 00:03:00,32.7,32.7,29.38,NW,318,6.0,24.6,100,0.00,,,0.00,VWS V13.01,2013-01-17 05:03:00,
2013-01-17 00:06:00,32.9,32.9,29.38,NNE,12,8.7,24.6,100,0.00,,,0.00,VWS V13.01,2013-01-17 05:06:00,
2013-01-17 00:11:00,33.1,33.1,29.38,West,281,4.7,24.6,100,0.00,,,0.00,VWS V13.01,2013-01-17 05:11:00,
2013-01-17 00:16:00,33.3,33.3,29.38,West,277,8.7,24.6,100,0.00,,,0.00,VWS V13.01,2013-01-17 05:16:00,
2013-01-17 00:21:00,33.6,33.6,29.38,WNW,294,7.4,24.6,100,0.00,,,0.00,VWS V13.01,2013-01-17 05:21:00,
2013-01-17 00:26:00,33.8,33.8,29.38,North,1,13.1,24.6,100,0.00,,,0.00,VWS V13.01,2013-01-17 05:26:00,
2013-01-17 00:31:00,33.6,33.6,29.38,North,353,5.4,24.6,100,0.00,,,0.00,VWS V13.01,2013-01-17 05:31:00,
2013-01-17 00:36:00,33.4,33.4,29.38,NW,309,6.0,24.6,100,0.00,,,0.00,VWS V13.01,2013-01-17 05:36:00,
2013-01-17 00:41:00,33.8,33.8,29.38,NNW,339,12.4,26.4,100,0.00,,,0.00,VWS V13.01,2013-01-17 05:41:00,
2013-01-17 00:46:00,34.0,34.0,29.38,North,357,9.4,26.4,100,0.00,,,0.00,VWS V13.01,2013-01-17 05:46:00,
2013-01-17 00:51:00,33.8,33.8,29.38,North,7,9.4,30.9,100,0.00,,,0.00,VWS V13.01,2013-01-17 05:51:00,
2013-01-17 00:56:00,33.6,33.6,29.38,North,353,8.1,30.9,100,0.00,,,0.00,VWS V13.01,2013-01-17 05:56:00,
2013-01-17 01:01:00,33.8,33.8,29.38,NNW,329,8.1,30.9,100,0.00,,,0.00,VWS V13.01,2013-01-17 06:01:00,
2013-01-17 01:06:00,33.6,33.6,29.38,NW,306,8.1,30.9,100,0.00,,,0.00,VWS V13.01,2013-01-17 06:06:00,
2013-01-17 01:11:00,33.6,33.6,29.38,North,4,6.0,30.9,100,0.00,,,0.00,VWS V13.01,2013-01-17 06:11:00,
2013-01-17 01:16:00,33.6,33.6,29.38,NW,317,8.1,30.9,100,0.00,,,0.00,VWS V13.01,2013-01-17 06:16:00,
2013-01-17 01:22:00,33.8,33.8,29.38,NW,320,8.1,30.9,100,0.00,,,0.00,VWS V13.01,2013-01-17 06:22:00,
2013-01-17 01:27:00,33.8,33.8,29.38,NW,307,9.4,30.9,100,0.00,,,0.00,VWS V13.01,2013-01-17 06:27:00,
2013-01-17 01:32:00,33.8,33.8,29.38,WNW,283,8.1,30.9,100,0.00,,,0.00,VWS V13.01,2013-01-17 06:32:00,
2013-01-17 01:37:00,34.0,34.0,29.38,NNW,329,6.7,30.9,100,0.00,,,0.00,VWS V13.01,2013-01-17 06:37:00,
2013-01-17 01:42:00,34.0,34.0,29.38,WSW,249,18.5,30.9,100,0.00,,,0.00,VWS V13.01,2013-01-17 06:42:00,
2013-01-17 01:47:00,34.0,34.0,29.38,North,9,13.1,30.9,100,0.00,,,0.00,VWS V13.01,2013-01-17 06:47:00,
2013-01-17 01:52:00,34.0,34.0,29.38,WNW,294,13.8,30.9,100,0.00,,,0.00,VWS V13.01,2013-01-17 06:52:00,
2013-01-17 01:57:00,34.0,34.0,29.38,WSW,248,15.1,34.9,100,0.00,,,0.00,VWS V13.01,2013-01-17 06:57:00,
2013-01-17 02:02:00,33.4,33.4,29.38,NW,326,22.5,34.9,100,0.00,,,0.00,VWS V13.01,2013-01-17 07:02:00,
2013-01-17 02:07:00,33.1,33.1,29.38,NW,308,9.4,34.9,100,0.00,,,0.00,VWS V13.01,2013-01-17 07:07:00,
2013-01-17 02:12:00,32.7,32.7,29.41,North,357,8.1,34.9,100,0.00,,,0.00,VWS V13.01,2013-01-17 07:12:00,
2013-01-17 02:17:00,32.5,32.5,29.41,NNW,332,8.7,34.9,100,0.00,,,0.00,VWS V13.01,2013-01-17 07:17:00,
2013-01-17 02:22:00,32.5,32.5,29.41,WNW,297,12.4,34.9,100,0.00,,,0.00,VWS V13.01,2013-01-17 07:22:00,
2013-01-17 02:27:00,32.5,32.5,29.41,NW,317,15.8,36.7,100,0.00,,,0.00,VWS V13.01,2013-01-17 07:27:00,
2013-01-17 02:32:00,32.4,32.4,29.41,NW,307,6.7,36.7,100,0.00,,,0.00,VWS V13.01,2013-01-17 07:32:00,
2013-01-17 02:37:00,32.4,32.4,29.41,WNW,287,8.7,36.7,100,0.00,,,0.00,VWS V13.01,2013-01-17 07:37:00,
2013-01-17 02:42:00,32.5,32.5,29.41,NNW,340,15.1,36.7,100,0.00,,,0.00,VWS V13.01,2013-01-17 07:42:00,
2013-01-17 02:47:00,32.5,32.5,29.41,North,1,9.4,36.7,100,0.00,,,0.00,VWS V13.01,2013-01-17 07:47:00,
2013-01-17 02:52:00,32.5,32.5,29.41,NW,307,12.4,36.7,100,0.00,,,0.00,VWS V13.01,2013-01-17 07:52:00,
2013-01-17 02:57:00,32.4,32.4,29.41,West,265,9.4,36.7,100,0.00,,,0.00,VWS V13.01,2013-01-17 07:57:00,
2013-01-17 03:02:00,32.4,32.4,29.41,North,3,12.4,36.7,100,0.00,,,0.00,VWS V13.01,2013-01-17 08:02:00,
2013-01-17 03:07:00,32.4,32.4,29.41,NW,326,14.4,36.7,100,0.00,,,0.00,VWS V13.01,2013-01-17 08:07:00,
2013-01-17 03:12:00,32.4,32.4,29.41,NW,305,8.7,36.7,100,0.00,,,0.00,VWS V13.01,2013-01-17 08:12:00,
2013-01-17 03:17:00,32.4,32.4,29.41,West,274,16.4,36.7,100,0.00,,,0.00,VWS V13.01,2013-01-17 08:17:00,
2013-01-17 03:22:00,32.4,32.4,29.41,West,279,5.4,36.7,100,0.00,,,0.00,VWS V13.01,2013-01-17 08:22:00,
2013-01-17 03:27:00,32.4,32.4,29.41,NW,319,15.8,36.7,100,0.00,,,0.00,VWS V13.01,2013-01-17 08:27:00,
2013-01-17 03:33:00,32.4,32.4,29.41,NNW,345,18.5,36.7,100,0.00,,,0.00,VWS V13.01,2013-01-17 08:33:00,
2013-01-17 03:38:00,32.4,32.4,29.41,NW,312,12.4,36.7,100,0.00,,,0.00,VWS V13.01,2013-01-17 08:38:00,
2013-01-17 03:43:00,32.4,32.4,29.41,WNW,298,16.4,36.7,100,0.00,,,0.00,VWS V13.01,2013-01-17 08:43:00,
2013-01-17 03:48:00,32.5,32.5,29.41,WNW,292,8.7,36.7,100,0.00,,,0.00,VWS V13.01,2013-01-17 08:48:00,
2013-01-17 03:53:00,32.5,32.5,29.41,North,357,16.4,36.7,100,0.00,,,0.00,VWS V13.01,2013-01-17 08:53:00,
2013-01-17 03:58:00,32.5,32.5,29.41,North,349,7.4,36.7,100,0.00,,,0.00,VWS V13.01,2013-01-17 08:58:00,
2013-01-17 04:03:00,32.5,32.5,29.41,WNW,288,14.4,36.7,100,0.00,,,0.00,VWS V13.01,2013-01-17 09:03:00,
2013-01-17 04:08:00,32.5,32.5,29.41,NW,307,12.1,36.7,100,0.00,,,0.00,VWS V13.01,2013-01-17 09:08:00,
2013-01-17 04:13:00,32.5,32.5,29.41,NNW,330,15.1,36.7,100,0.00,,,0.00,VWS V13.01,2013-01-17 09:13:00,
2013-01-17 04:18:00,32.7,32.7,29.41,NNW,329,13.1,36.7,100,0.00,,,0.00,VWS V13.01,2013-01-17 09:18:00,
2013-01-17 04:23:00,32.5,32.5,29.41,NNE,12,12.4,36.7,100,0.00,,,0.00,VWS V13.01,2013-01-17 09:23:00,
2013-01-17 04:28:00,32.5,32.5,29.41,North,0,12.4,36.7,100,0.00,,,0.00,VWS V13.01,2013-01-17 09:28:00,
2013-01-17 04:33:00,32.5,32.5,29.41,WNW,303,8.7,36.7,100,0.00,,,0.00,VWS V13.01,2013-01-17 09:33:00,
2013-01-17 04:38:00,32.5,32.5,29.41,North,10,6.0,36.7,100,0.00,,,0.00,VWS V13.01,2013-01-17 09:38:00,
2013-01-17 04:43:00,32.5,32.5,29.41,NW,313,13.8,36.7,100,0.00,,,0.00,VWS V13.01,2013-01-17 09:43:00,
2013-01-17 04:48:00,32.5,32.5,29.41,NW,319,10.1,36.7,100,0.00,,,0.00,VWS V13.01,2013-01-17 09:48:00,
2013-01-17 04:53:00,32.5,32.5,29.41,NW,325,8.1,36.7,100,0.00,,,0.00,VWS V13.01,2013-01-17 09:53:00,
2013-01-17 04:58:00,32.5,32.5,29.41,NW,325,9.4,36.7,100,0.00,,,0.00,VWS V13.01,2013-01-17 09:58:00,
2013-01-17 05:03:00,32.5,32.5,29.41,NNW,342,19.1,36.7,100,0.00,,,0.00,VWS V13.01,2013-01-17 10:03:00,
2013-01-17 05:08:00,32.7,32.7,29.41,NW,316,13.1,36.7,100,0.00,,,0.00,VWS V13.01,2013-01-17 10:08:00,
2013-01-17 05:13:00,32.7,32.7,29.41,NNW,332,11.4,36.7,100,0.00,,,0.00,VWS V13.01,2013-01-17 10:13:00,
2013-01-17 05:18:00,32.4,32.4,29.41,NNW,329,12.1,36.7,100,0.00,,,0.00,VWS V13.01,2013-01-17 10:18:00,
2013-01-17 05:23:00,30.2,30.2,29.44,NNW,344,12.4,39.4,100,0.00,,,0.00,VWS V13.01,2013-01-17 10:23:00,
2013-01-17 05:28:00,29.7,29.7,29.44,ENE,69,16.4,39.4,100,0.00,,,0.00,VWS V13.01,2013-01-17 10:28:00,
2013-01-17 05:33:00,28.8,28.8,29.44,North,3,19.8,39.4,100,0.00,,,0.00,VWS V13.01,2013-01-17 10:33:00,
2013-01-17 05:38:00,27.9,27.9,29.44,NE,53,12.4,39.4,100,0.00,,,0.00,VWS V13.01,2013-01-17 10:38:00,
2013-01-17 05:43:00,27.1,27.1,29.47,NE,35,15.8,39.4,100,0.00,,,0.00,VWS V13.01,2013-01-17 10:43:00,
2013-01-17 05:48:00,27.0,25.0,29.47,North,357,21.1,39.4,92,0.00,,,0.00,VWS V13.01,2013-01-17 10:48:00,
2013-01-17 05:54:00,26.4,25.4,29.47,North,357,14.4,39.4,96,0.00,,,0.00,VWS V13.01,2013-01-17 10:54:00,
2013-01-17 05:59:00,26.1,25.1,29.50,NNE,25,9.4,39.4,96,0.00,,,0.00,VWS V13.01,2013-01-17 10:59:00,
2013-01-17 06:04:00,25.9,24.9,29.50,North,0,16.4,39.4,96,0.00,,,0.00,VWS V13.01,2013-01-17 11:04:00,
2013-01-17 06:09:00,25.3,24.4,29.50,NE,55,5.4,39.4,96,0.00,,,0.00,VWS V13.01,2013-01-17 11:09:00,
2013-01-17 06:14:00,24.8,23.8,29.50,North,357,19.1,39.4,96,0.00,,,0.00,VWS V13.01,2013-01-17 11:14:00,
2013-01-17 06:19:00,24.4,21.4,29.50,NNE,22,23.2,39.4,88,0.00,,,0.00,VWS V13.01,2013-01-17 11:19:00,
2013-01-17 06:24:00,24.1,21.0,29.53,ENE,66,10.7,39.4,88,0.00,,,0.00,VWS V13.01,2013-01-17 11:24:00,
2013-01-17 06:29:00,23.7,20.7,29.53,North,3,8.7,39.4,88,0.00,,,0.00,VWS V13.01,2013-01-17 11:29:00,
2013-01-17 06:34:00,23.4,20.3,29.53,NNE,29,20.5,39.4,88,0.00,,,0.00,VWS V13.01,2013-01-17 11:34:00,
2013-01-17 06:39:00,23.2,20.2,29.53,North,10,12.1,39.4,88,0.00,,,0.00,VWS V13.01,2013-01-17 11:39:00,
2013-01-17 06:44:00,23.0,20.0,29.53,North,9,15.8,39.4,88,0.00,,,0.00,VWS V13.01,2013-01-17 11:44:00,
2013-01-17 06:49:00,22.8,19.8,29.53,NNE,33,6.0,39.4,88,0.00,,,0.00,VWS V13.01,2013-01-17 11:49:00,
2013-01-17 06:54:00,22.3,19.3,29.56,NNE,17,18.5,39.4,88,0.00,,,0.00,VWS V13.01,2013-01-17 11:54:00,
2013-01-17 06:59:00,21.7,18.7,29.56,ENE,57,8.7,39.4,88,0.00,,,0.00,VWS V13.01,2013-01-17 11:59:00,
2013-01-17 07:04:00,21.4,18.4,29.56,NNE,20,12.4,39.4,88,0.00,,,0.00,VWS V13.01,2013-01-17 12:04:00,
2013-01-17 07:09:00,20.8,17.9,29.56,NE,44,13.1,39.4,88,0.00,,,0.00,VWS V13.01,2013-01-17 12:09:00,
2013-01-17 07:14:00,20.3,17.3,29.56,North,4,13.8,39.4,88,0.00,,,0.00,VWS V13.01,2013-01-17 12:14:00,
2013-01-17 07:19:00,19.4,17.5,29.56,NE,36,4.7,39.4,92,0.00,,,0.00,VWS V13.01,2013-01-17 12:19:00,
2013-01-17 07:24:00,18.5,16.6,29.59,NNE,12,12.1,39.4,92,0.00,,,0.00,VWS V13.01,2013-01-17 12:24:00,
2013-01-17 07:29:00,17.8,15.9,29.59,ENE,57,10.7,39.4,92,0.00,,,0.00,VWS V13.01,2013-01-17 12:29:00,
2013-01-17 07:34:00,17.4,15.5,29.59,NE,44,7.4,39.4,92,0.00,,,0.00,VWS V13.01,2013-01-17 12:34:00,
2013-01-17 07:39:00,16.5,14.6,29.62,NNE,20,8.1,39.4,92,0.00,,,0.00,VWS V13.01,2013-01-17 12:39:00,
2013-01-17 07:44:00,15.8,14.9,29.62,NE,35,7.4,39.4,96,0.00,,,0.00,VWS V13.01,2013-01-17 12:44:00,
2013-01-17 07:49:00,15.4,14.5,29.62,North,7,8.7,39.4,96,0.00,,,0.00,VWS V13.01,2013-01-17 12:49:00,
2013-01-17 07:54:00,15.1,14.1,29.62,North,5,17.8,39.4,96,0.00,,,0.00,VWS V13.01,2013-01-17 12:54:00,
2013-01-17 07:59:00,14.5,13.6,29.62,NNE,28,11.4,39.4,96,0.00,,,0.00,VWS V13.01,2013-01-17 12:59:00,
2013-01-17 08:04:00,14.2,13.2,29.62,North,0,9.4,39.4,96,0.00,,,0.00,VWS V13.01,2013-01-17 13:04:00,
2013-01-17 08:09:00,14.2,13.2,29.65,NE,47,11.4,39.4,96,0.00,,,0.00,VWS V13.01,2013-01-17 13:09:00,
2013-01-17 08:15:00,14.0,13.1,29.65,NNE,21,12.1,39.4,96,0.00,,,0.00,VWS V13.01,2013-01-17 13:15:00,
2013-01-17 08:20:00,13.8,12.9,29.65,North,7,15.8,39.4,96,0.00,,,0.00,VWS V13.01,2013-01-17 13:20:00,
2013-01-17 08:25:00,12.9,12.0,29.68,NNE,20,9.4,39.4,96,0.00,,,0.00,VWS V13.01,2013-01-17 13:25:00,
2013-01-17 08:30:00,13.5,12.5,29.68,NNE,25,12.1,39.4,96,0.00,,,0.00,VWS V13.01,2013-01-17 13:30:00,
2013-01-17 08:35:00,13.5,12.5,29.68,North,10,11.4,39.4,96,0.00,,,0.00,VWS V13.01,2013-01-17 13:35:00,
2013-01-17 08:40:00,13.6,12.7,29.71,NNE,30,17.8,39.4,96,0.00,,,0.00,VWS V13.01,2013-01-17 13:40:00,
2013-01-17 08:45:00,15.1,14.1,29.71,NNE,22,5.4,39.4,96,0.00,,,0.00,VWS V13.01,2013-01-17 13:45:00,
2013-01-17 08:50:00,14.4,13.4,29.71,NE,49,5.4,39.4,96,0.00,,,0.00,VWS V13.01,2013-01-17 13:50:00,
2013-01-17 08:55:00,14.5,13.6,29.71,NE,36,4.0,39.4,96,0.00,,,0.00,VWS V13.01,2013-01-17 13:55:00,
2013-01-17 09:00:00,13.5,12.5,29.71,East,86,7.4,39.4,96,0.00,,,0.00,VWS V13.01,2013-01-17 14:00:00,
2013-01-17 09:05:00,13.6,12.7,29.71,East,81,7.4,39.4,96,0.00,,,0.00,VWS V13.01,2013-01-17 14:05:00,
2013-01-17 09:10:00,13.3,12.4,29.74,ENE,62,6.0,39.4,96,0.00,,,0.00,VWS V13.01,2013-01-17 14:10:00,
2013-01-17 09:15:00,13.6,12.7,29.74,East,80,5.4,39.4,96,0.00,,,0.00,VWS V13.01,2013-01-17 14:15:00,
2013-01-17 09:20:00,13.6,12.7,29.74,ENE,58,8.7,39.4,96,0.00,,,0.00,VWS V13.01,2013-01-17 14:20:00,
2013-01-17 09:25:00,12.9,12.0,29.77,ENE,66,7.4,39.4,96,0.00,,,0.00,VWS V13.01,2013-01-17 14:25:00,
2013-01-17 09:30:00,12.7,11.8,29.77,ENE,70,4.0,39.4,96,0.00,,,0.00,VWS V13.01,2013-01-17 14:30:00,
2013-01-17 09:35:00,12.6,11.6,29.77,NNE,25,8.7,39.4,96,0.00,,,0.00,VWS V13.01,2013-01-17 14:35:00,
2013-01-17 09:40:00,13.5,12.5,29.77,NE,41,4.7,39.4,96,0.00,,,0.00,VWS V13.01,2013-01-17 14:40:00,
2013-01-17 09:45:00,12.9,12.0,29.77,East,85,5.4,39.4,96,0.00,,,0.00,VWS V13.01,2013-01-17 14:45:00,
2013-01-17 09:50:00,12.2,11.3,29.77,ENE,76,9.4,39.4,96,0.00,,,0.00,VWS V13.01,2013-01-17 14:50:00,
2013-01-17 09:55:00,12.0,11.1,29.80,East,84,8.7,39.4,96,0.00,,,0.00,VWS V13.01,2013-01-17 14:55:00,
2013-01-17 10:00:00,12.0,11.1,29.80,ENE,61,4.7,39.4,96,0.00,,,0.00,VWS V13.01,2013-01-17 15:00:00,
2013-01-17 10:05:00,12.2,11.3,29.80,ESE,103,12.1,39.4,96,0.00,,,0.00,VWS V13.01,2013-01-17 15:05:00,
2013-01-17 10:10:00,11.7,10.7,29.80,ENE,68,6.0,39.4,96,0.00,,,0.00,VWS V13.01,2013-01-17 15:10:00,
2013-01-17 10:15:00,12.4,11.5,29.80,ENE,67,6.0,39.4,96,0.00,,,0.00,VWS V13.01,2013-01-17 15:15:00,
2013-01-17 10:20:00,11.8,10.9,29.80,ENE,58,8.1,39.4,96,0.00,,,0.00,VWS V13.01,2013-01-17 15:20:00,
2013-01-17 10:25:00,12.0,11.1,29.83,ENE,59,5.4,39.4,96,0.00,,,0.00,VWS V13.01,2013-01-17 15:25:00,
2013-01-17 10:30:00,12.0,11.1,29.83,ENE,73,7.4,39.4,96,0.00,,,0.00,VWS V13.01,2013-01-17 15:30:00,
2013-01-17 10:35:00,11.7,10.7,29.83,ENE,68,9.4,39.4,96,0.00,,,0.00,VWS V13.01,2013-01-17 15:35:00,
2013-01-17 10:40:00,12.7,11.8,29.83,East,89,8.1,39.4,96,0.00,,,0.00,VWS V13.01,2013-01-17 15:40:00,
2013-01-17 10:45:00,12.6,11.6,29.83,ENE,75,12.1,39.4,96,0.00,,,0.00,VWS V13.01,2013-01-17 15:45:00,
2013-01-17 10:51:00,12.7,11.8,29.83,ENE,59,6.0,39.4,96,0.00,,,0.00,VWS V13.01,2013-01-17 15:51:00,
2013-01-17 10:56:00,14.2,13.2,29.83,NE,49,4.0,39.4,96,0.00,,,0.00,VWS V13.01,2013-01-17 15:56:00,
2013-01-17 11:01:00,10.8,9.8,29.83,NNE,16,8.1,39.4,96,0.00,,,0.00,VWS V13.01,2013-01-17 16:01:00,
2013-01-17 11:06:00,11.3,10.4,29.83,NE,50,6.0,39.4,96,0.00,,,0.00,VWS V13.01,2013-01-17 16:06:00,
2013-01-17 11:11:00,13.6,12.7,29.83,NE,44,4.7,39.4,96,0.00,,,0.00,VWS V13.01,2013-01-17 16:11:00,
2013-01-17 11:16:00,12.2,11.3,29.83,NNE,16,12.1,39.4,96,0.00,,,0.00,VWS V13.01,2013-01-17 16:16:00,
2013-01-17 11:21:00,12.2,11.3,29.83,NNE,27,6.0,39.4,96,0.00,,,0.00,VWS V13.01,2013-01-17 16:21:00,
2013-01-17 11:26:00,11.1,10.2,29.85,NNE,22,8.7,39.4,96,0.00,,,0.00,VWS V13.01,2013-01-17 16:26:00,
2013-01-17 11:31:00,10.4,9.5,29.85,NNE,17,12.1,39.4,96,0.00,,,0.00,VWS V13.01,2013-01-17 16:31:00,
2013-01-17 11:36:00,11.7,10.7,29.85,NNE,19,8.1,39.4,96,0.00,,,0.00,VWS V13.01,2013-01-17 16:36:00,
2013-01-17 11:41:00,11.7,10.7,29.85,NNE,15,9.4,39.4,96,0.00,,,0.00,VWS V13.01,2013-01-17 16:41:00,
2013-01-17 11:46:00,13.5,12.5,29.85,North,4,10.7,39.4,96,0.00,,,0.00,VWS V13.01,2013-01-17 16:46:00,
2013-01-17 11:51:00,10.9,10.0,29.85,NNE,29,10.7,39.4,96,0.00,,,0.00,VWS V13.01,2013-01-17 16:51:00,
2013-01-17 11:56:00,12.9,12.0,29.85,NE,42,6.0,39.4,96,0.00,,,0.00,VWS V13.01,2013-01-17 16:56:00,
2013-01-17 12:01:00,11.3,10.4,29.85,NNE,12,13.1,39.4,96,0.00,,,0.00,VWS V13.01,2013-01-17 17:01:00,
2013-01-17 12:06:00,10.9,10.0,29.85,NE,47,9.4,39.4,96,0.00,,,0.00,VWS V13.01,2013-01-17 17:06:00,
2013-01-17 12:11:00,10.4,9.5,29.85,North,8,11.4,39.4,96,0.00,,,0.00,VWS V13.01,2013-01-17 17:11:00,
2013-01-17 12:16:00,12.2,11.3,29.85,North,10,8.7,39.4,96,0.00,,,0.00,VWS V13.01,2013-01-17 17:16:00,
2013-01-17 12:21:00,11.5,10.6,29.85,North,353,6.0,39.4,96,0.00,,,0.00,VWS V13.01,2013-01-17 17:21:00,
2013-01-17 12:26:00,10.9,10.0,29.85,NE,36,4.7,39.4,96,0.00,,,0.00,VWS V13.01,2013-01-17 17:26:00,
2013-01-17 12:31:00,10.9,10.0,29.85,NE,35,8.1,39.4,96,0.00,,,0.00,VWS V13.01,2013-01-17 17:31:00,
2013-01-17 12:36:00,11.1,10.2,29.85,NNW,346,9.4,39.4,96,0.00,,,0.00,VWS V13.01,2013-01-17 17:36:00,
2013-01-17 12:41:00,10.2,9.3,29.85,NNE,28,11.4,39.4,96,0.00,,,0.00,VWS V13.01,2013-01-17 17:41:00,
2013-01-17 12:46:00,10.8,9.8,29.85,NE,42,7.4,39.4,96,0.00,,,0.00,VWS V13.01,2013-01-17 17:46:00,
2013-01-17 12:51:00,10.8,9.8,29.85,NE,36,6.0,39.4,96,0.00,,,0.00,VWS V13.01,2013-01-17 17:51:00,
2013-01-17 12:56:00,10.6,9.7,29.85,NNE,29,11.4,39.4,96,0.00,,,0.00,VWS V13.01,2013-01-17 17:56:00,
2013-01-17 13:02:00,10.6,9.7,29.85,North,1,11.4,39.4,96,0.00,,,0.00,VWS V13.01,2013-01-17 18:02:00,
2013-01-17 13:07:00,12.0,11.1,29.85,NE,41,4.7,39.4,96,0.00,,,0.00,VWS V13.01,2013-01-17 18:07:00,
2013-01-17 13:12:00,12.4,11.5,29.85,North,5,10.1,39.4,96,0.00,,,0.00,VWS V13.01,2013-01-17 18:12:00,
2013-01-17 13:17:00,13.5,12.5,29.85,NE,41,4.7,39.4,96,0.00,,,0.00,VWS V13.01,2013-01-17 18:17:00,
2013-01-17 13:22:00,12.2,11.3,29.85,North,6,6.0,39.4,96,0.00,,,0.00,VWS V13.01,2013-01-17 18:22:00,
2013-01-17 13:27:00,12.2,11.3,29.85,NE,52,8.1,39.4,96,0.00,,,0.00,VWS V13.01,2013-01-17 18:27:00,
2013-01-17 13:32:00,12.2,11.3,29.85,NE,36,8.1,39.4,96,0.00,,,0.00,VWS V13.01,2013-01-17 18:32:00,
2013-01-17 13:37:00,12.9,12.0,29.85,ENE,74,6.0,39.4,96,0.00,,,0.00,VWS V13.01,2013-01-17 18:37:00,
2013-01-17 13:42:00,17.1,15.1,29.85,NE,44,5.4,39.4,92,0.00,,,0.00,VWS V13.01,2013-01-17 18:42:00,
2013-01-17 13:47:00,16.5,14.6,29.85,ENE,62,6.0,39.4,92,0.00,,,0.00,VWS V13.01,2013-01-17 18:47:00,
2013-01-17 13:52:00,16.3,14.4,29.85,NE,48,0.0,39.4,92,0.00,,,0.00,VWS V13.01,2013-01-17 18:52:00,
2013-01-17 13:57:00,12.6,11.6,29.85,NNE,22,9.4,39.4,96,0.00,,,0.00,VWS V13.01,2013-01-17 18:57:00,
2013-01-17 14:02:00,16.2,14.2,29.85,North,1,6.0,39.4,92,0.00,,,0.00,VWS V13.01,2013-01-17 19:02:00,
2013-01-17 14:07:00,13.5,12.5,29.85,NW,320,8.1,39.4,96,0.00,,,0.00,VWS V13.01,2013-01-17 19:07:00,
2013-01-17 14:12:00,13.3,12.4,29.88,WNW,291,6.0,39.4,96,0.00,,,0.00,VWS V13.01,2013-01-17 19:12:00,
2013-01-17 14:17:00,15.6,14.7,29.88,WNW,299,9.4,39.4,96,0.00,,,0.00,VWS V13.01,2013-01-17 19:17:00,
2013-01-17 14:22:00,14.9,14.0,29.88,NW,322,6.0,39.4,96,0.00,,,0.00,VWS V13.01,2013-01-17 19:22:00,
2013-01-17 14:27:00,14.7,13.8,29.88,WNW,297,9.4,39.4,96,0.00,,,0.00,VWS V13.01,2013-01-17 19:27:00,
2013-01-17 14:32:00,16.0,14.1,29.88,WNW,299,6.0,39.4,92,0.00,,,0.00,VWS V13.01,2013-01-17 19:32:00,
2013-01-17 14:37:00,15.4,14.5,29.88,NW,307,5.4,39.4,96,0.00,,,0.00,VWS V13.01,2013-01-17 19:37:00,
2013-01-17 14:42:00,13.5,12.5,29.88,NNW,330,10.1,39.4,96,0.00,,,0.00,VWS V13.01,2013-01-17 19:42:00,
2013-01-17 14:47:00,13.6,12.7,29.88,NNW,338,11.4,39.4,96,0.00,,,0.00,VWS V13.01,2013-01-17 19:47:00,
2013-01-17 14:52:00,14.5,13.6,29.88,North,353,7.4,39.4,96,0.00,,,0.00,VWS V13.01,2013-01-17 19:52:00,
2013-01-17 14:57:00,13.6,12.7,29.88,NW,324,5.4,39.4,96,0.00,,,0.00,VWS V13.01,2013-01-17 19:57:00,
2013-01-17 15:02:00,13.8,12.9,29.88,North,353,4.0,39.4,96,0.00,,,0.00,VWS V13.01,2013-01-17 20:02:00,
2013-01-17 15:07:00,13.3,12.4,29.88,NNW,337,8.1,39.4,96,0.00,,,0.00,VWS V13.01,2013-01-17 20:07:00,
2013-01-17 15:12:00,12.0,11.1,29.88,NNW,327,8.7,39.4,96,0.00,,,0.00,VWS V13.01,2013-01-17 20:12:00,
2013-01-17 15:17:00,11.7,10.7,29.88,NNW,341,9.4,39.4,96,0.00,,,0.00,VWS V13.01,2013-01-17 20:17:00,
2013-01-17 15:23:00,12.9,12.0,29.88,NNW,346,8.1,39.4,96,0.00,,,0.00,VWS V13.01,2013-01-17 20:23:00,
2013-01-17 15:28:00,12.0,11.1,29.88,North,357,11.4,39.4,96,0.00,,,0.00,VWS V13.01,2013-01-17 20:28:00,
2013-01-17 15:33:00,13.8,12.9,29.88,North,353,4.0,39.4,96,0.00,,,0.00,VWS V13.01,2013-01-17 20:33:00,
2013-01-17 15:38:00,14.4,13.4,29.88,NNW,334,6.7,39.4,96,0.00,,,0.00,VWS V13.01,2013-01-17 20:38:00,
2013-01-17 15:43:00,13.3,12.4,29.85,NE,39,4.0,39.4,96,0.00,,,0.00,VWS V13.01,2013-01-17 20:43:00,
2013-01-17 15:48:00,11.1,10.2,29.85,NNE,22,8.7,39.4,96,0.00,,,0.00,VWS V13.01,2013-01-17 20:48:00,
2013-01-17 15:53:00,10.9,10.0,29.85,NNE,33,8.7,39.4,96,0.00,,,0.00,VWS V13.01,2013-01-17 20:53:00,
2013-01-17 15:58:00,10.8,9.8,29.88,North,353,9.4,39.4,96,0.00,,,0.00,VWS V13.01,2013-01-17 20:58:00,
2013-01-17 16:03:00,10.9,10.0,29.88,NNE,16,8.7,39.4,96,0.00,,,0.00,VWS V13.01,2013-01-17 21:03:00,
2013-01-17 16:08:00,9.1,8.2,29.88,North,1,4.7,39.4,96,0.00,,,0.00,VWS V13.01,2013-01-17 21:08:00,
2013-01-17 16:13:00,8.1,7.2,29.88,North,357,6.0,39.4,96,0.00,,,0.00,VWS V13.01,2013-01-17 21:13:00,
2013-01-17 16:18:00,7.9,7.0,29.88,North,353,4.0,39.4,96,0.00,,,0.00,VWS V13.01,2013-01-17 21:18:00,
2013-01-17 16:23:00,7.9,7.0,29.88,NNW,340,11.4,39.4,96,0.00,,,0.00,VWS V13.01,2013-01-17 21:23:00,
2013-01-17 16:28:00,7.0,6.1,29.88,NE,39,8.7,39.4,96,0.00,,,0.00,VWS V13.01,2013-01-17 21:28:00,
2013-01-17 16:33:00,6.4,5.5,29.88,NNW,334,8.1,39.4,96,0.00,,,0.00,VWS V13.01,2013-01-17 21:33:00,
2013-01-17 16:38:00,5.7,4.8,29.88,North,349,4.7,39.4,96,0.00,,,0.00,VWS V13.01,2013-01-17 21:38:00,
2013-01-17 16:43:00,5.5,4.7,29.88,NNE,17,9.4,39.4,96,0.00,,,0.00,VWS V13.01,2013-01-17 21:43:00,
2013-01-17 16:48:00,5.5,4.7,29.88,NNE,24,8.7,39.4,96,0.00,,,0.00,VWS V13.01,2013-01-17 21:48:00,
2013-01-17 16:53:00,4.5,3.6,29.88,North,8,4.7,39.4,96,0.00,,,0.00,VWS V13.01,2013-01-17 21:53:00,
2013-01-17 16:58:00,4.1,3.2,29.88,NNE,20,7.4,39.4,96,0.00,,,0.00,VWS V13.01,2013-01-17 21:58:00,
2013-01-17 17:03:00,3.7,2.8,29.88,NNE,30,4.0,39.4,96,0.00,,,0.00,VWS V13.01,2013-01-17 22:03:00,
2013-01-17 17:08:00,3.0,2.1,29.88,NE,40,4.0,39.4,96,0.00,,,0.00,VWS V13.01,2013-01-17 22:08:00,
2013-01-17 17:13:00,3.7,2.8,29.88,NNE,26,5.4,39.4,96,0.00,,,0.00,VWS V13.01,2013-01-17 22:13:00,
2013-01-17 17:18:00,3.4,2.5,29.88,NNE,24,8.1,39.4,96,0.00,,,0.00,VWS V13.01,2013-01-17 22:18:00,
2013-01-17 17:23:00,3.6,2.7,29.88,NNE,26,8.7,39.4,96,0.00,,,0.00,VWS V13.01,2013-01-17 22:23:00,
2013-01-17 17:28:00,2.8,2.0,29.88,NE,35,4.7,39.4,96,0.00,,,0.00,VWS V13.01,2013-01-17 22:28:00,
2013-01-17 17:34:00,2.1,1.2,29.88,NNE,21,5.4,39.4,96,0.00,,,0.00,VWS V13.01,2013-01-17 22:34:00,
2013-01-17 17:39:00,1.8,0.9,29.88,NNE,22,5.4,39.4,96,0.00,,,0.00,VWS V13.01,2013-01-17 22:39:00,
2013-01-17 17:44:00,1.6,0.7,29.88,NE,41,6.7,39.4,96,0.00,,,0.00,VWS V13.01,2013-01-17 22:44:00,
2013-01-17 17:49:00,1.6,0.7,29.88,NNE,21,3.4,39.4,96,0.00,,,0.00,VWS V13.01,2013-01-17 22:49:00,
2013-01-17 17:54:00,1.2,0.3,29.91,North,3,4.7,39.4,96,0.00,,,0.00,VWS V13.01,2013-01-17 22:54:00,
2013-01-17 17:59:00,0.9,0.0,29.91,North,353,4.0,39.4,96,0.00,,,0.00,VWS V13.01,2013-01-17 22:59:00,
2013-01-17 18:04:00,0.9,0.0,29.91,North,357,4.7,39.4,96,0.00,,,0.00,VWS V13.01,2013-01-17 23:04:00,
2013-01-17 18:09:00,0.7,-0.2,29.91,North,357,4.7,39.4,96,0.00,,,0.00,VWS V13.01,2013-01-17 23:09:00,
2013-01-17 18:14:00,0.7,-0.2,29.91,NNE,26,6.0,39.4,96,0.00,,,0.00,VWS V13.01,2013-01-17 23:14:00,
2013-01-17 18:19:00,0.3,-0.6,29.91,NNE,24,5.4,39.4,96,0.00,,,0.00,VWS V13.01,2013-01-17 23:19:00,
2013-01-17 18:24:00,0.1,-0.7,29.91,North,357,4.7,39.4,96,0.00,,,0.00,VWS V13.01,2013-01-17 23:24:00,
2013-01-17 18:29:00,-0.2,-1.1,29.91,North,8,4.0,39.4,96,0.00,,,0.00,VWS V13.01,2013-01-17 23:29:00,
2013-01-17 18:34:00,-0.4,-1.3,29.91,NNE,22,5.4,39.4,96,0.00,,,0.00,VWS V13.01,2013-01-17 23:34:00,
2013-01-17 18:39:00,-1.3,-2.2,29.91,NNE,22,4.0,39.4,96,0.00,,,0.00,VWS V13.01,2013-01-17 23:39:00,
2013-01-17 18:44:00,-1.8,-2.7,29.91,North,5,4.0,39.4,96,0.00,,,0.00,VWS V13.01,2013-01-17 23:44:00,
2013-01-17 18:49:00,-2.4,-3.2,29.91,North,5,0.0,39.4,96,0.00,,,0.00,VWS V13.01,2013-01-17 23:49:00,
2013-01-17 18:54:00,-2.7,-3.6,29.94,North,5,0.0,39.4,96,0.00,,,0.00,VWS V13.01,2013-01-17 23:54:00,
2013-01-17 18:59:00,-3.1,-4.0,29.94,North,5,0.0,39.4,96,0.00,,,0.00,VWS V13.01,2013-01-17 23:59:00,
2013-01-17 19:04:00,-2.4,-3.2,29.94,North,6,0.0,39.4,96,0.00,,,0.00,VWS V13.01,2013-01-18 00:04:00,
2013-01-17 19:09:00,-2.6,-3.4,29.91,North,6,0.0,39.4,96,0.00,,,0.00,VWS V13.01,2013-01-18 00:09:00,
2013-01-17 19:14:00,-3.1,-4.0,29.91,North,6,0.0,39.4,96,0.00,,,0.00,VWS V13.01,2013-01-18 00:14:00,
2013-01-17 19:19:00,-3.5,-4.3,29.91,North,6,0.0,39.4,96,0.00,,,0.00,VWS V13.01,2013-01-18 00:19:00,
2013-01-17 19:24:00,-3.1,-4.0,29.91,NNE,32,0.0,39.4,96,0.00,,,0.00,VWS V13.01,2013-01-18 00:24:00,
2013-01-17 19:29:00,-3.1,-4.0,29.91,NNE,32,0.0,39.4,96,0.00,,,0.00,VWS V13.01,2013-01-18 00:29:00,
2013-01-17 19:34:00,-2.9,-3.8,29.91,NNE,32,0.0,39.4,96,0.00,,,0.00,VWS V13.01,2013-01-18 00:34:00,
2013-01-17 19:40:00,-3.1,-4.0,29.94,NNE,32,0.0,39.4,96,0.00,,,0.00,VWS V13.01,2013-01-18 00:40:00,
2013-01-17 19:45:00,-3.5,-4.3,29.94,NNE,32,0.0,39.4,96,0.00,,,0.00,VWS V13.01,2013-01-18 00:45:00,
2013-01-17 19:50:00,-3.5,-4.3,29.94,NE,39,0.0,39.4,96,0.00,,,0.00,VWS V13.01,2013-01-18 00:50:00,
2013-01-17 19:55:00,-4.0,-4.8,29.94,NNE,27,0.0,39.4,96,0.00,,,0.00,VWS V13.01,2013-01-18 00:55:00,
2013-01-17 20:00:00,-3.8,-4.7,29.94,North,7,0.0,39.4,96,0.00,,,0.00,VWS V13.01,2013-01-18 01:00:00,
2013-01-17 20:05:00,-3.5,-4.3,29.94,NNE,32,4.7,39.4,96,0.00,,,0.00,VWS V13.01,2013-01-18 01:05:00,
2013-01-17 20:10:00,-3.1,-4.0,29.94,North,7,0.0,39.4,96,0.00,,,0.00,VWS V13.01,2013-01-18 01:10:00,
2013-01-17 20:15:00,-3.1,-4.0,29.94,North,357,4.7,39.4,96,0.00,,,0.00,VWS V13.01,2013-01-18 01:15:00,
2013-01-17 20:20:00,-3.1,-4.0,29.94,North,8,3.4,39.4,96,0.00,,,0.00,VWS V13.01,2013-01-18 01:20:00,
2013-01-17 20:25:00,-3.1,-4.0,29.94,NNE,17,0.0,39.4,96,0.00,,,0.00,VWS V13.01,2013-01-18 01:25:00,
2013-01-17 20:30:00,-2.7,-3.6,29.94,NNE,24,5.4,39.4,96,0.00,,,0.00,VWS V13.01,2013-01-18 01:30:00,
2013-01-17 20:35:00,-2.4,-3.2,29.94,NE,39,4.0,39.4,96,0.00,,,0.00,VWS V13.01,2013-01-18 01:35:00,
2013-01-17 20:40:00,-2.7,-3.6,29.94,NNE,19,3.4,39.4,96,0.00,,,0.00,VWS V13.01,2013-01-18 01:40:00,
2013-01-17 20:45:00,-3.3,-4.1,29.94,North,357,0.0,39.4,96,0.00,,,0.00,VWS V13.01,2013-01-18 01:45:00,
2013-01-17 20:50:00,-3.6,-4.5,29.94,North,1,4.0,39.4,96,0.00,,,0.00,VWS V13.01,2013-01-18 01:50:00,
2013-01-17 20:55:00,-3.8,-4.7,29.94,North,357,0.0,39.4,96,0.00,,,0.00,VWS V13.01,2013-01-18 01:55:00,
2013-01-17 21:00:00,-4.4,-5.2,29.94,North,357,0.0,39.4,96,0.00,,,0.00,VWS V13.01,2013-01-18 02:00:00,
2013-01-17 21:05:00,-4.2,-5.0,29.94,NNE,12,0.0,39.4,96,0.00,,,0.00,VWS V13.01,2013-01-18 02:05:00,
2013-01-17 21:10:00,-4.4,-5.2,29.94,North,10,0.0,39.4,96,0.00,,,0.00,VWS V13.01,2013-01-18 02:10:00,
2013-01-17 21:15:00,-4.7,-5.6,29.94,North,10,0.0,39.4,96,0.00,,,0.00,VWS V13.01,2013-01-18 02:15:00,
2013-01-17 21:21:00,-4.4,-5.2,29.94,North,353,0.0,39.4,96,0.00,,,0.00,VWS V13.01,2013-01-18 02:21:00,
2013-01-17 21:26:00,-5.3,-6.1,29.94,North,353,0.0,39.4,96,0.00,,,0.00,VWS V13.01,2013-01-18 02:26:00,
2013-01-17 21:31:00,-6.3,-7.2,29.94,North,353,0.0,39.4,96,0.00,,,0.00,VWS V13.01,2013-01-18 02:31:00,
2013-01-17 21:36:00,-6.2,-7.0,29.94,North,353,0.0,39.4,96,0.00,,,0.00,VWS V13.01,2013-01-18 02:36:00,
2013-01-17 21:41:00,-6.3,-7.2,29.97,North,353,0.0,39.4,96,0.00,,,0.00,VWS V13.01,2013-01-18 02:41:00,
2013-01-17 21:46:00,-7.1,-7.9,29.97,North,353,0.0,39.4,96,0.00,,,0.00,VWS V13.01,2013-01-18 02:46:00,
2013-01-17 21:51:00,-7.6,-8.4,29.97,North,353,0.0,39.4,96,0.00,,,0.00,VWS V13.01,2013-01-18 02:51:00,
2013-01-17 21:56:00,-8.3,-9.1,29.94,North,353,0.0,39.4,96,0.00,,,0.00,VWS V13.01,2013-01-18 02:56:00,
2013-01-17 22:01:00,-8.9,-9.7,29.94,North,353,0.0,39.4,96,0.00,,,0.00,VWS V13.01,2013-01-18 03:01:00,
2013-01-17 22:06:00,-9.6,-10.4,29.94,North,353,0.0,39.4,96,0.00,,,0.00,VWS V13.01,2013-01-18 03:06:00,
2013-01-17 22:11:00,-10.1,-10.9,29.94,North,353,0.0,39.4,96,0.00,,,0.00,VWS V13.01,2013-01-18 03:11:00,
2013-01-17 22:16:00,-10.3,-11.1,29.94,North,353,0.0,39.4,96,0.00,,,0.00,VWS V13.01,2013-01-18 03:16:00,
2013-01-17 22:21:00,-10.5,-11.3,29.94,North,353,0.0,39.4,96,0.00,,,0.00,VWS V13.01,2013-01-18 03:21:00,
2013-01-17 22:26:00,-9.9,-10.8,29.91,North,353,0.0,39.4,96,0.00,,,0.00,VWS V13.01,2013-01-18 03:26:00,